Time,TemperatureF,DewpointF,PressureIn,WindDirection,WindDirectionDegrees,WindSpeedMPH,WindSpeedGustMPH,Humidity,HourlyPrecipIn,Conditions,Clouds,dailyrainin,SoftwareType,DateUTC
2013-07-01 00:12:00,55.0,-99.9,-100.00,North,9,0.0,0.0,-999,-99.99,,,-99.99,,2013-07-01 08:12:00,
2013-07-01 00:22:00,55.0,-99.9,-100.00,North,9,0.0,0.0,-999,-99.99,,,-99.99,,2013-07-01 08:22:00,
2013-07-01 00:33:00,55.0,-99.9,-100.00,North,9,0.0,0.0,-999,-99.99,,,-99.99,,2013-07-01 08:33:00,
2013-07-01 00:43:00,55.0,-99.9,-100.00,North,9,0.0,0.0,-999,-99.99,,,-99.99,,2013-07-01 08:43:00,
2013-07-01 00:52:00,55.0,-99.9,-100.00,North,9,0.0,0.0,-999,-99.99,,,-99.99,,2013-07-01 08:52:00,
2013-07-01 02:12:00,52.0,-99.9,-100.00,NNE,26,0.0,0.0,-999,-99.99,,,-99.99,,2013-07-01 10:12:00,
2013-07-01 02:22:00,52.0,-99.9,-100.00,NNE,26,0.0,0.0,-999,-99.99,,,-99.99,,2013-07-01 10:22:00,
2013-07-01 02:33:00,52.0,-99.9,-100.00,NNE,26,0.0,0.0,-999,-99.99,,,-99.99,,2013-07-01 10:33:00,
2013-07-01 02:43:00,52.0,-99.9,-100.00,NNE,26,0.0,0.0,-999,-99.99,,,-99.99,,2013-07-01 10:43:00,
2013-07-01 03:12:00,52.0,-99.9,-100.00,NNE,26,0.0,0.0,-999,-99.99,,,-99.99,,2013-07-01 11:12:00,
2013-07-01 03:22:00,52.0,-99.9,-100.00,NNE,26,0.0,0.0,-999,-99.99,,,-99.99,,2013-07-01 11:22:00,
2013-07-01 03:34:00,52.0,-99.9,-100.00,NNE,26,0.0,0.0,-999,-99.99,,,-99.99,,2013-07-01 11:34:00,
2013-07-01 03:43:00,52.0,-99.9,-100.00,NNE,26,0.0,0.0,-999,-99.99,,,-99.99,,2013-07-01 11:43:00,
2013-07-01 03:52:00,52.0,-99.9,-100.00,NNE,26,0.0,0.0,-999,-99.99,,,-99.99,,2013-07-01 11:52:00,
2013-07-01 04:11:00,51.0,-99.9,-100.00,NNE,26,0.0,0.0,-999,-99.99,,,-99.99,,2013-07-01 12:11:00,
2013-07-01 04:22:00,51.0,-99.9,-100.00,NNE,26,0.0,0.0,-999,-99.99,,,-99.99,,2013-07-01 12:22:00,
2013-07-01 04:33:00,51.0,-99.9,-100.00,NNE,26,0.0,0.0,-999,-99.99,,,-99.99,,2013-07-01 12:33:00,
2013-07-01 04:43:00,51.0,-99.9,-100.00,NNE,26,0.0,0.0,-999,-99.99,,,-99.99,,2013-07-01 12:43:00,
2013-07-01 05:12:00,51.0,-99.9,-100.00,NNW,347,0.0,0.0,-999,-99.99,,,-99.99,,2013-07-01 13:12:00,
2013-07-01 05:23:00,51.0,-99.9,-100.00,NNW,347,0.0,0.0,-999,-99.99,,,-99.99,,2013-07-01 13:23:00,
2013-07-01 05:33:00,51.0,-99.9,-100.00,NNW,347,0.0,0.0,-999,-99.99,,,-99.99,,2013-07-01 13:33:00,
2013-07-01 05:53:00,51.0,-99.9,-100.00,NNW,347,0.0,0.0,-999,-99.99,,,-99.99,,2013-07-01 13:53:00,
2013-07-01 07:12:00,51.0,-99.9,-100.00,North,8,0.0,0.0,-999,-99.99,,,-99.99,,2013-07-01 15:12:00,
2013-07-01 07:23:00,51.0,-99.9,-100.00,North,8,0.0,0.0,-999,-99.99,,,-99.99,,2013-07-01 15:23:00,
2013-07-01 07:34:00,51.0,-99.9,-100.00,North,8,0.0,0.0,-999,-99.99,,,-99.99,,2013-07-01 15:34:00,
2013-07-01 07:44:00,51.0,-99.9,-100.00,North,8,0.0,0.0,-999,-99.99,,,-99.99,,2013-07-01 15:44:00,
2013-07-01 07:53:00,51.0,-99.9,-100.00,North,8,0.0,0.0,-999,-99.99,,,-99.99,,2013-07-01 15:53:00,
2013-07-01 09:12:00,51.0,-99.9,-100.00,North,350,0.0,0.0,-999,-99.99,,,-99.99,,2013-07-01 17:12:00,
2013-07-01 09:23:00,51.0,-99.9,-100.00,North,350,0.0,0.0,-999,-99.99,,,-99.99,,2013-07-01 17:23:00,
2013-07-01 09:34:00,51.0,-99.9,-100.00,North,350,0.0,0.0,-999,-99.99,,,-99.99,,2013-07-01 17:34:00,
2013-07-01 09:43:00,51.0,-99.9,-100.00,North,350,0.0,0.0,-999,-99.99,,,-99.99,,2013-07-01 17:43:00,
2013-07-01 09:53:00,51.0,-99.9,-100.00,North,350,0.0,0.0,-999,-99.99,,,-99.99,,2013-07-01 17:53:00,
2013-07-01 11:22:00,52.0,-99.9,-100.00,North,350,0.0,0.0,-999,-99.99,,,-99.99,,2013-07-01 19:22:00,
2013-07-01 11:34:00,52.0,-99.9,-100.00,North,350,0.0,0.0,-999,-99.99,,,-99.99,,2013-07-01 19:34:00,
2013-07-01 11:44:00,52.0,-99.9,-100.00,North,350,0.0,0.0,-999,-99.99,,,-99.99,,2013-07-01 19:44:00,
2013-07-01 11:53:00,52.0,-99.9,-100.00,North,350,0.0,0.0,-999,-99.99,,,-99.99,,2013-07-01 19:53:00,
2013-07-01 14:12:00,55.0,-99.9,-100.00,NE,48,0.0,0.0,-999,-99.99,,,-99.99,,2013-07-01 22:12:00,
2013-07-01 14:24:00,55.0,-99.9,-100.00,NE,48,0.0,0.0,-999,-99.99,,,-99.99,,2013-07-01 22:24:00,
2013-07-01 14:33:00,55.0,-99.9,-100.00,NE,48,0.0,0.0,-999,-99.99,,,-99.99,,2013-07-01 22:33:00,
2013-07-01 14:43:00,55.0,-99.9,-100.00,NE,48,0.0,0.0,-999,-99.99,,,-99.99,,2013-07-01 22:43:00,
2013-07-01 14:53:00,55.0,-99.9,-100.00,NE,48,0.0,0.0,-999,-99.99,,,-99.99,,2013-07-01 22:53:00,
2013-07-01 17:11:00,57.0,-99.9,-100.00,North,7,0.0,3.0,-999,-99.99,,,-99.99,,2013-07-02 01:11:00,
2013-07-01 17:22:00,57.0,-99.9,-100.00,North,7,0.0,3.0,-999,-99.99,,,-99.99,,2013-07-02 01:22:00,
2013-07-01 17:33:00,57.0,-99.9,-100.00,North,7,0.0,3.0,-999,-99.99,,,-99.99,,2013-07-02 01:33:00,
2013-07-01 17:43:00,57.0,-99.9,-100.00,North,7,0.0,3.0,-999,-99.99,,,-99.99,,2013-07-02 01:43:00,
2013-07-01 17:53:00,57.0,-99.9,-100.00,North,7,0.0,3.0,-999,-99.99,,,-99.99,,2013-07-02 01:53:00,
2013-07-01 18:22:00,56.0,-99.9,-100.00,NNW,336,0.0,3.0,-999,-99.99,,,-99.99,,2013-07-02 02:22:00,
2013-07-01 18:34:00,56.0,-99.9,-100.00,NNW,336,0.0,3.0,-999,-99.99,,,-99.99,,2013-07-02 02:34:00,
2013-07-01 18:43:00,56.0,-99.9,-100.00,NNW,336,0.0,3.0,-999,-99.99,,,-99.99,,2013-07-02 02:43:00,
2013-07-01 18:53:00,56.0,-99.9,-100.00,NNW,336,0.0,3.0,-999,-99.99,,,-99.99,,2013-07-02 02:53:00,
2013-07-01 19:12:00,57.0,-99.9,-100.00,NE,43,0.0,0.0,-999,-99.99,,,-99.99,,2013-07-02 03:12:00,
2013-07-01 19:24:00,57.0,-99.9,-100.00,NE,43,0.0,0.0,-999,-99.99,,,-99.99,,2013-07-02 03:24:00,
2013-07-01 19:33:00,57.0,-99.9,-100.00,NE,43,0.0,0.0,-999,-99.99,,,-99.99,,2013-07-02 03:33:00,
2013-07-01 19:43:00,57.0,-99.9,-100.00,NE,43,0.0,0.0,-999,-99.99,,,-99.99,,2013-07-02 03:43:00,
2013-07-01 19:53:00,57.0,-99.9,-100.00,NE,43,0.0,0.0,-999,-99.99,,,-99.99,,2013-07-02 03:53:00,
2013-07-01 20:22:00,57.0,-99.9,-100.00,NE,43,0.0,0.0,-999,-99.99,,,-99.99,,2013-07-02 04:22:00,
2013-07-01 20:32:00,57.0,-99.9,-100.00,NE,43,0.0,0.0,-999,-99.99,,,-99.99,,2013-07-02 04:32:00,
2013-07-01 20:42:00,57.0,-99.9,-100.00,NE,43,0.0,0.0,-999,-99.99,,,-99.99,,2013-07-02 04:42:00,
2013-07-01 20:54:00,57.0,-99.9,-100.00,NE,43,0.0,0.0,-999,-99.99,,,-99.99,,2013-07-02 04:54:00,
2013-07-01 23:12:00,52.0,-99.9,-100.00,NE,43,0.0,0.0,-999,-99.99,,,-99.99,,2013-07-02 07:12:00,
2013-07-01 23:22:00,52.0,-99.9,-100.00,NE,43,0.0,0.0,-999,-99.99,,,-99.99,,2013-07-02 07:22:00,
2013-07-01 23:34:00,52.0,-99.9,-100.00,NE,43,0.0,0.0,-999,-99.99,,,-99.99,,2013-07-02 07:34:00,
2013-07-01 23:44:00,52.0,-99.9,-100.00,NE,43,0.0,0.0,-999,-99.99,,,-99.99,,2013-07-02 07:44:00,
2013-07-01 23:53:00,52.0,-99.9,-100.00,NE,43,0.0,0.0,-999,-99.99,,,-99.99,,2013-07-02 07:53:00,